GW3664 Weather Reports


time (UTC)temp
C
wind
direction
speed
KPH
gust
KPH
rain 1hr
cm
rain 24hr
cm
rain mn
cm
humidity
%
barometer
mb
20260510061050 7 0 0.0 3.2 0.00 0.00 0.00 81 1019.7
20260510060552 7 0 0.0 3.2 0.00 0.00 0.00 80 1019.7
20260510060056 7 0 0.0 0.0 0.00 0.00 0.00 80 1019.7
20260510055553 7 0 0.0 0.0 0.00 0.00 0.00 79 1019.7
20260510055053 7 0 0.0 0.0 0.00 0.00 0.00 78 1019.6
20260510054554 8 0 0.0 1.6 0.00 0.00 0.00 78 1019.6
20260510054051 8 0 0.0 1.6 0.00 0.00 0.00 77 1019.6
20260510053550 8 0 0.0 1.6 0.00 0.00 0.00 76 1019.6
20260510053056 9 0 0.0 1.6 0.00 0.00 0.00 74 1019.5
20260510052555 9 0 0.0 1.6 0.00 0.00 0.00 73 1019.7
20260510052054 10 0 0.0 1.6 0.00 0.00 0.00 72 1019.6
20260510051557 10 0 0.0 0.0 0.00 0.00 0.00 73 1019.5
20260510051054 11 0 0.0 0.0 0.00 0.00 0.00 73 1019.6
20260510050555 11 0 0.0 0.0 0.00 0.00 0.00 74 1019.7
20260510050055 11 0 0.0 0.0 0.00 0.00 0.00 72 1019.7
20260510045554 11 0 0.0 1.6 0.00 0.00 0.00 73 1019.7
20260510045052 11 0 0.0 1.6 0.00 0.00 0.00 72 1019.7
20260510044627 11 0 0.0 1.6 0.00 0.00 0.00 72 1019.7
20260510044049 11 0 0.0 1.6 0.00 0.00 0.00 72 1019.8
20260510043551 11 0 0.0 1.6 0.00 0.00 0.00 73 1019.8
20260510043051 11 115 0.0 3.2 0.00 0.00 0.00 73 1019.9
20260510042555 11 0 0.0 3.2 0.00 0.00 0.00 73 1019.8
20260510042051 11 0 0.0 1.6 0.00 0.00 0.00 73 1019.8
20260510041553 11 0 0.0 1.6 0.00 0.00 0.00 72 1019.8
20260510041055 11 0 0.0 3.2 0.00 0.00 0.00 71 1019.8
20260510040549 11 0 0.0 3.2 0.00 0.00 0.00 71 1019.8
20260510040054 12 115 0.0 3.2 0.00 0.00 0.00 71 1019.8
20260510035548 12 98 0.0 4.8 0.00 0.00 0.00 71 1019.7
20260510035048 12 0 1.6 6.4 0.00 0.00 0.00 71 1019.7
20260510034554 12 71 1.6 6.4 0.00 0.00 0.00 71 1019.6
20260510034049 12 87 1.6 6.4 0.00 0.00 0.00 70 1019.5
20260510033554 12 0 0.0 3.2 0.00 0.00 0.00 69 1019.5
20260510033054 12 0 0.0 4.8 0.00 0.00 0.00 68 1019.3
20260510032554 12 97 0.0 4.8 0.00 0.00 0.00 67 1019.2
20260510032052 13 105 1.6 4.8 0.00 0.00 0.00 67 1019.1
20260510031550 13 105 0.0 6.4 0.00 0.00 0.00 66 1019.1
20260510031056 13 105 1.6 6.4 0.00 0.00 0.00 64 1019.1
20260510030554 13 82 0.0 1.6 0.00 0.00 0.00 62 1019.1
20260510030056 13 56 0.0 1.6 0.00 0.00 0.00 60 1018.9
20260510025549 13 0 0.0 1.6 0.00 0.00 0.00 57 1018.7
20260510025048 13 0 0.0 1.6 0.00 0.00 0.00 56 1018.7
20260510024556 14 0 0.0 3.2 0.00 0.00 0.00 56 1018.5
20260510024051 14 0 0.0 3.2 0.00 0.00 0.00 55 1018.4
20260510023552 15 0 0.0 0.0 0.00 0.00 0.00 54 1018.4
20260510023102 15 0 0.0 0.0 0.00 0.00 0.00 51 1018.4
20260510022550 15 0 0.0 4.8 0.00 0.00 0.00 51 1018.6
20260510022052 15 0 0.0 4.8 0.00 0.00 0.00 50 1018.5
20260510021557 15 0 1.6 4.8 0.00 0.00 0.00 49 1018.4
20260510021052 15 76 1.6 12.9 0.00 0.00 0.00 49 1018.4
20260510020552 16 0 1.6 12.9 0.00 0.00 0.00 49 1018.3
20260510020059 16 82 4.8 12.9 0.00 0.00 0.00 47 1018.2
20260510015553 16 57 3.2 11.3 0.00 0.00 0.00 47 1018.2
20260510015050 16 72 4.8 11.3 0.00 0.00 0.00 47 1018.2
20260510014557 16 60 3.2 11.3 0.00 0.00 0.00 47 1018.1
20260510014052 16 42 1.6 9.7 0.00 0.00 0.00 48 1018.1
20260510013549 16 21 1.6 9.7 0.00 0.00 0.00 49 1018.1
20260510013056 16 46 3.2 12.9 0.00 0.00 0.00 49 1018.0
20260510012549 16 77 4.8 12.9 0.00 0.00 0.00 48 1017.9
20260510012053 17 74 6.4 12.9 0.00 0.00 0.00 49 1017.9
20260510011559 17 59 3.2 11.3 0.00 0.00 0.00 48 1018.0
20260510011052 17 51 1.6 14.5 0.00 0.00 0.00 46 1018.0
20260510010552 16 0 3.2 14.5 0.00 0.00 0.00 45 1018.0
20260510010123 16 46 4.8 9.7 0.00 0.00 0.00 47 1018.0
20260510005553 16 72 4.8 9.7 0.00 0.00 0.00 46 1018.0
20260510005052 16 48 4.8 9.7 0.00 0.00 0.00 46 1018.0
20260510004554 17 52 3.2 12.9 0.00 0.00 0.00 46 1018.0
20260510004051 17 9 4.8 12.9 0.00 0.00 0.00 47 1018.1
20260510003551 17 0 1.6 4.8 0.00 0.00 0.00 46 1018.1
20260510003058 17 0 1.6 4.8 0.00 0.00 0.00 45 1018.1
20260510002551 17 300 0.0 6.4 0.00 0.00 0.00 46 1018.1
20260510002051 17 0 3.2 12.9 0.00 0.00 0.00 46 1018.0
20260510001553 17 0 1.6 12.9 0.00 0.00 0.00 45 1018.0
20260510001051 17 40 6.4 12.9 0.00 0.00 0.00 46 1018.0
20260510000551 17 65 4.8 9.7 0.00 0.00 0.00 45 1018.0
20260510000054 17 58 1.6 4.8 0.00 0.00 0.00 50 1018.0
20260509235550 17 58 0.0 8.0 0.00 0.00 0.00 53 1018.0
20260509235052 16 52 1.6 8.0 0.00 0.00 0.00 51 1018.0
20260509234618 16 0 0.0 6.4 0.00 0.00 0.00 54 1017.9
20260509234053 16 42 1.6 6.4 0.00 0.00 0.00 55 1017.8
20260509233550 16 26 1.6 12.9 0.00 0.00 0.00 57 1017.9
20260509233056 16 360 3.2 27.4 0.00 0.00 0.00 57 1017.9
20260509232552 17 5 11.3 27.4 0.00 0.00 0.00 55 1017.9
20260509232052 17 325 6.4 19.3 0.00 0.00 0.00 43 1017.8
20260509231553 17 344 4.8 19.3 0.00 0.00 0.00 43 1017.7
20260509231144 18 340 8.0 19.3 0.00 0.00 0.00 43 1017.6
20260509230550 18 304 8.0 19.3 0.00 0.00 0.00 44 1017.6
20260509230056 18 338 8.0 19.3 0.00 0.00 0.00 46 1017.5
20260509225553 17 21 3.2 14.5 0.00 0.00 0.00 48 1017.5
20260509225050 18 14 6.4 14.5 0.00 0.00 0.00 49 1017.5
20260509224553 17 26 6.4 14.5 0.00 0.00 0.00 48 1017.5
20260509224054 18 317 4.8 14.5 0.00 0.00 0.00 46 1017.5
20260509223552 18 5 6.4 14.5 0.00 0.00 0.00 46 1017.5
20260509223100 19 28 6.4 17.7 0.00 0.00 0.00 47 1017.4
20260509222552 19 5 8.0 17.7 0.00 0.00 0.00 44 1017.4
20260509222052 19 310 6.4 19.3 0.00 0.00 0.00 40 1017.3
20260509221552 19 360 8.0 19.3 0.00 0.00 0.00 40 1017.4
20260509221054 19 312 8.0 22.5 0.00 0.00 0.00 39 1017.3
20260509220551 19 309 6.4 22.5 0.00 0.00 0.00 42 1017.3
20260509220057 19 308 4.8 17.7 0.00 0.00 0.00 41 1017.3
20260509215551 18 340 6.4 20.9 0.00 0.00 0.00 41 1017.3
20260509215051 18 313 9.7 20.9 0.00 0.00 0.00 41 1017.3
20260509214553 18 296 9.7 20.9 0.00 0.00 0.00 42 1017.3
20260509214050 18 355 6.4 24.1 0.00 0.00 0.00 44 1017.3
20260509213551 18 5 8.0 24.1 0.00 0.00 0.00 42 1017.3
20260509213055 18 320 6.4 17.7 0.00 0.00 0.00 43 1017.4
20260509212550 18 315 9.7 19.3 0.00 0.00 0.00 42 1017.5
20260509212050 18 312 9.7 25.7 0.00 0.00 0.00 43 1017.5
20260509211555 18 320 9.7 25.7 0.00 0.00 0.00 45 1017.5
20260509211055 18 323 12.9 20.9 0.00 0.00 0.00 44 1017.5
20260509210550 18 342 9.7 20.9 0.00 0.00 0.00 46 1017.4
20260509210053 18 315 11.3 20.9 0.00 0.00 0.00 45 1017.6
20260509205549 18 350 12.9 25.7 0.00 0.00 0.00 46 1017.5
20260509205054 17 327 14.5 25.7 0.00 0.00 0.00 46 1017.4
20260509204558 17 350 8.0 29.0 0.00 0.00 0.00 46 1017.4
20260509204052 17 322 12.9 29.0 0.00 0.00 0.00 47 1017.4
20260509203550 17 337 12.9 29.0 0.00 0.00 0.00 46 1017.4
20260509203124 17 355 16.1 29.0 0.00 0.00 0.00 45 1017.4
20260509202550 17 319 16.1 27.4 0.00 0.00 0.00 46 1017.3
20260509202054 17 352 14.5 25.7 0.00 0.00 0.00 46 1017.3
20260509201604 17 329 16.1 29.0 0.00 0.00 0.00 46 1017.2
20260509201050 17 333 14.5 29.0 0.00 0.00 0.00 48 1017.4
20260509200553 17 300 14.5 29.0 0.00 0.00 0.00 49 1017.3
20260509195553 17 326 9.7 29.0 0.00 0.00 0.00 52 1017.3
20260509195053 16 303 12.9 22.5 0.00 0.00 0.00 51 1017.4
20260509194551 17 252 11.3 27.4 0.00 0.00 0.00 50 1017.4
20260509194050 16 350 12.9 27.4 0.00 0.00 0.00 50 1017.4
20260509193549 16 276 16.1 27.4 0.00 0.00 0.00 48 1017.4
20260509193116 17 311 14.5 27.4 0.00 0.00 0.00 49 1017.4
20260509192551 16 293 8.0 20.9 0.00 0.00 0.00 53 1017.3
20260509192051 16 290 9.7 20.9 0.00 0.00 0.00 55 1017.3
20260509191558 16 329 6.4 20.9 0.00 0.00 0.00 59 1017.3
20260509191052 15 340 8.0 20.9 0.00 0.00 0.00 58 1017.4
20260509190548 14 323 9.7 19.3 0.00 0.00 0.00 60 1017.5
20260509190056 13 345 8.0 19.3 0.00 0.00 0.00 65 1017.6
20260509185553 12 298 4.8 16.1 0.00 0.00 0.00 71 1017.6
20260509185049 12 319 3.2 19.3 0.00 0.00 0.00 73 1017.6
20260509184552 12 360 3.2 19.3 0.00 0.00 0.00 70 1017.5
20260509184048 13 302 9.7 29.0 0.00 0.00 0.00 66 1017.8
20260509183555 15 10 14.5 29.0 0.00 0.00 0.00 58 1017.9
20260509183059 16 355 6.4 16.1 0.00 0.00 0.00 55 1017.7
20260509182553 16 352 3.2 16.1 0.00 0.00 0.00 55 1017.4
20260509182054 16 346 4.8 16.1 0.00 0.00 0.00 57 1017.4
20260509181559 16 340 6.4 12.9 0.00 0.00 0.00 57 1017.5
20260509181050 15 326 3.2 11.3 0.00 0.00 0.00 56 1017.6
20260509180558 15 285 4.8 16.1 0.00 0.00 0.00 57 1017.6
20260509180104 15 275 4.8 16.1 0.00 0.00 0.00 56 1017.6
20260509175553 15 306 4.8 16.1 0.00 0.00 0.00 60 1017.6
20260509175051 15 333 1.6 14.5 0.00 0.00 0.00 58 1017.5
20260509174550 15 294 4.8 14.5 0.00 0.00 0.00 55 1017.4
20260509174053 15 328 4.8 17.7 0.00 0.00 0.00 56 1017.4
20260509173552 15 346 6.4 17.7 0.00 0.00 0.00 52 1017.3
20260509173101 15 315 6.4 16.1 0.00 0.00 0.00 58 1017.3
20260509172550 15 340 1.6 19.3 0.00 0.00 0.00 57 1017.3
20260509172053 15 348 8.0 19.3 0.00 0.00 0.00 56 1017.4
20260509171559 15 330 6.4 19.3 0.00 0.00 0.00 59 1017.3
20260509171051 15 14 4.8 12.9 0.00 0.00 0.00 57 1017.2
20260509170552 15 327 3.2 12.9 0.00 0.00 0.00 58 1017.2
20260509170058 15 352 3.2 12.9 0.00 0.00 0.00 58 1017.1
20260509165551 15 11 3.2 12.9 0.00 0.00 0.00 61 1017.1
20260509165050 14 340 3.2 14.5 0.00 0.00 0.00 59 1017.1
20260509164602 14 346 4.8 14.5 0.00 0.00 0.00 60 1017.1
20260509164050 14 22 4.8 14.5 0.00 0.00 0.00 60 1017.0
20260509163555 14 336 6.4 17.7 0.00 0.00 0.00 61 1017.0
20260509163057 15 310 4.8 17.7 0.00 0.00 0.00 60 1017.1
20260509162551 15 355 3.2 11.3 0.00 0.00 0.00 61 1017.0
20260509162052 14 343 3.2 14.5 0.00 0.00 0.00 63 1017.0
20260509161558 14 341 3.2 14.5 0.00 0.00 0.00 62 1017.0
20260509161050 14 317 4.8 11.3 0.00 0.00 0.00 63 1017.0
20260509160551 13 311 3.2 12.9 0.00 0.00 0.00 62 1016.9
20260509160054 13 319 3.2 14.5 0.00 0.00 0.00 65 1017.0
20260509155550 14 323 6.4 14.5 0.00 0.00 0.00 62 1016.8
20260509155052 14 289 3.2 9.7 0.00 0.00 0.00 61 1016.8
20260509154554 14 19 3.2 9.7 0.00 0.00 0.00 60 1016.7
20260509154052 13 311 3.2 9.7 0.00 0.00 0.00 59 1016.7
20260509153552 13 294 1.6 9.7 0.00 0.00 0.00 59 1016.6
20260509153057 13 5 3.2 12.9 0.00 0.00 0.00 60 1016.6
20260509152552 13 329 4.8 12.9 0.00 0.00 0.00 60 1016.5
20260509152052 13 347 4.8 12.9 0.00 0.00 0.00 60 1016.5
20260509151609 13 308 3.2 9.7 0.00 0.00 0.00 60 1016.5
20260509151051 13 309 3.2 12.9 0.00 0.00 0.00 60 1016.4
20260509150550 13 294 4.8 12.9 0.00 0.00 0.00 60 1016.3
20260509150054 13 270 3.2 11.3 0.00 0.00 0.00 60 1016.4
20260509145551 13 304 1.6 11.3 0.00 0.00 0.00 60 1016.3
20260509145050 13 284 3.2 11.3 0.00 0.00 0.00 60 1016.2
20260509144554 13 270 3.2 9.7 0.00 0.00 0.00 60 1016.2
20260509144051 13 327 3.2 12.9 0.00 0.00 0.00 60 1016.2
20260509143555 13 297 3.2 12.9 0.00 0.00 0.00 61 1016.0
20260509143053 13 308 4.8 12.9 0.00 0.00 0.00 63 1016.0
20260509142551 12 0 1.6 9.7 0.00 0.00 0.00 65 1016.0
20260509142051 12 0 1.6 9.7 0.00 0.00 0.00 65 1016.0
20260509141554 12 0 1.6 6.4 0.00 0.00 0.00 66 1015.9
20260509141052 11 0 1.6 6.4 0.00 0.00 0.00 66 1015.9
20260509140552 11 286 0.0 6.4 0.00 0.00 0.00 67 1015.9
20260509140057 11 0 1.6 6.4 0.00 0.00 0.00 67 1015.9
20260509135553 11 296 3.2 6.4 0.00 0.00 0.00 68 1015.8
20260509135053 11 0 1.6 4.8 0.00 0.00 0.00 69 1015.7
20260509134555 11 0 0.0 4.8 0.00 0.00 0.00 68 1015.8
20260509134052 11 293 0.0 4.8 0.00 0.00 0.00 67 1015.7
20260509133551 11 0 0.0 4.8 0.00 0.00 0.00 67 1015.8
20260509133103 11 0 0.0 6.4 0.00 0.00 0.00 67 1015.6
20260509132551 11 0 0.0 8.0 0.00 0.00 0.00 67 1015.5
20260509132051 11 0 0.0 8.0 0.00 0.00 0.00 67 1015.3
20260509131552 11 313 3.2 8.0 0.00 0.00 0.00 67 1015.3
20260509131051 11 304 3.2 11.3 0.00 0.00 0.00 68 1015.2
20260509130551 11 325 3.2 12.9 0.00 0.00 0.00 68 1015.2
20260509125550 11 306 3.2 9.7 0.00 0.00 0.00 68 1014.9
20260509125050 11 344 1.6 8.0 0.00 0.00 0.00 68 1014.8
20260509124552 11 328 3.2 12.9 0.00 0.00 0.00 68 1014.8
20260509124053 11 328 4.8 14.5 0.00 0.00 0.00 68 1014.6
20260509123551 11 317 4.8 14.5 0.00 0.00 0.00 67 1014.5
20260509123053 11 280 4.8 14.5 0.00 0.00 0.00 67 1014.4
20260509122552 11 306 3.2 16.1 0.00 0.00 0.00 66 1014.4
20260509122052 11 311 4.8 16.1 0.00 0.00 0.00 66 1014.3
20260509121555 11 317 4.8 14.5 0.00 0.00 0.00 66 1014.2
20260509121051 11 311 4.8 14.5 0.00 0.00 0.00 66 1013.9
20260509120551 11 314 6.4 14.5 0.00 0.00 0.00 66 1013.9
20260509120058 11 303 6.4 16.1 0.00 0.00 0.00 66 1013.8
20260509115550 12 318 8.0 16.1 0.00 0.00 0.00 65 1013.7
20260509115050 12 293 6.4 19.3 0.00 0.00 0.00 65 1013.7
20260509114553 12 271 8.0 19.3 0.00 0.00 0.00 65 1013.7
20260509114053 12 319 6.4 16.1 0.00 0.00 0.00 65 1013.5
20260509113551 12 277 8.0 16.1 0.00 0.00 0.00 65 1013.5
20260509113052 12 317 6.4 16.1 0.00 0.00 0.00 65 1013.5
20260509112550 12 325 6.4 16.1 0.00 0.00 0.00 65 1013.3
20260509112050 12 342 6.4 14.5 0.00 0.00 0.00 64 1013.2
20260509111556 12 313 8.0 16.1 0.00 0.00 0.00 64 1013.0
20260509111051 12 337 6.4 17.7 0.00 0.00 0.00 64 1013.0
20260509110553 12 313 9.7 17.7 0.00 0.00 0.00 63 1012.9
20260509110053 12 301 6.4 16.1 0.00 0.00 0.00 63 1012.8
20260509105552 12 304 8.0 16.1 0.00 0.00 0.00 62 1012.8
20260509105051 12 296 8.0 17.7 0.00 0.00 0.00 62 1012.7
20260509104552 12 318 4.8 17.7 0.00 0.00 0.00 62 1012.7
20260509104050 12 300 8.0 17.7 0.00 0.00 0.00 61 1012.7
20260509103552 12 350 8.0 14.5 0.00 0.00 0.00 61 1012.7
20260509103054 13 346 6.4 16.1 0.00 0.00 0.00 60 1012.7
20260509102551 13 308 6.4 17.7 0.00 0.00 0.00 60 1012.6
20260509102054 13 306 4.8 17.7 0.00 0.00 0.00 59 1012.5
20260509101553 13 273 1.6 9.7 0.00 0.00 0.00 59 1012.4
20260509101052 13 278 1.6 9.7 0.00 0.00 0.00 59 1012.4
20260509100550 12 274 0.0 3.2 0.00 0.00 0.00 59 1012.4
20260509100056 12 0 0.0 4.8 0.00 0.00 0.00 59 1012.4
20260509095551 12 0 1.6 4.8 0.00 0.00 0.00 60 1012.3
20260509095053 12 0 0.0 4.8 0.00 0.00 0.00 60 1012.3
20260509094554 12 0 0.0 4.8 0.00 0.00 0.00 59 1012.3
20260509094053 12 304 0.0 4.8 0.00 0.00 0.00 59 1012.3
20260509093552 12 329 0.0 4.8 0.00 0.00 0.00 59 1012.3
20260509093058 12 0 0.0 0.0 0.00 0.00 0.00 59 1012.3
20260509092552 13 0 0.0 4.8 0.00 0.00 0.00 60 1012.2
20260509092052 13 0 0.0 4.8 0.00 0.00 0.00 60 1012.2
20260509091600 13 0 0.0 4.8 0.00 0.00 0.00 59 1012.3
20260509091051 13 0 0.0 1.6 0.00 0.00 0.00 59 1012.1
20260509090553 13 0 0.0 3.2 0.00 0.00 0.00 58 1012.0
20260509090059 14 0 0.0 4.8 0.00 0.00 0.00 57 1011.9
20260509085555 14 0 1.6 11.3 0.00 0.00 0.00 56 1011.9
20260509085056 14 0 1.6 11.3 0.00 0.00 0.00 56 1011.9
20260509084555 14 309 1.6 8.0 0.00 0.00 0.00 56 1011.9
20260509084051 15 315 3.2 8.0 0.00 0.00 0.00 54 1011.7
20260509083550 15 26 4.8 9.7 0.00 0.00 0.00 54 1011.7
20260509083111 15 355 3.2 11.3 0.00 0.00 0.00 55 1011.6
20260509082550 15 355 4.8 17.7 0.00 0.00 0.00 54 1011.7
20260509082050 15 5 3.2 17.7 0.00 0.00 0.00 52 1011.6
20260509081604 15 5 4.8 12.9 0.00 0.00 0.00 51 1011.6
20260509081050 15 346 1.6 14.5 0.00 0.00 0.00 49 1011.6
20260509080553 16 346 3.2 14.5 0.00 0.00 0.00 49 1011.5
20260509080108 16 292 6.4 14.5 0.00 0.00 0.00 48 1011.4
20260509075552 16 319 6.4 22.5 0.00 0.00 0.00 47 1011.4
20260509075052 16 321 9.7 25.7 0.00 0.00 0.00 46 1011.3
20260509074557 16 247 11.3 25.7 0.00 0.00 0.00 44 1011.1
20260509074051 16 263 16.1 24.1 0.00 0.00 0.00 44 1010.7
20260509073552 16 272 14.5 24.1 0.00 0.00 0.00 44 1010.5
20260509073054 16 257 14.5 24.1 0.00 0.00 0.00 44 1010.5
20260509072551 16 306 11.3 30.6 0.00 0.00 0.00 44 1010.5
20260509072052 16 304 12.9 33.8 0.00 0.00 0.00 44 1010.5
20260509071609 16 281 12.9 33.8 0.00 0.00 0.00 43 1010.5
20260509071052 17 273 14.5 33.8 0.00 0.00 0.00 43 1010.5
20260509070553 17 275 11.3 25.7 0.00 0.00 0.00 42 1010.5
20260509070105 17 259 11.3 25.7 0.00 0.00 0.00 42 1010.3
20260509065552 17 300 12.9 22.5 0.00 0.00 0.00 42 1010.3
20260509065049 17 360 11.3 27.4 0.00 0.00 0.00 43 1010.2
20260509064556 17 266 12.9 27.4 0.00 0.00 0.00 43 1010.2
20260509064054 17 299 16.1 27.4 0.00 0.00 0.00 43 1010.2
20260509063555 17 278 11.3 27.4 0.00 0.00 0.00 42 1010.3
20260509063058 17 287 9.7 27.4 0.00 0.00 0.00 41 1010.3
20260509062549 17 287 11.3 29.0 0.00 0.00 0.00 39 1010.2
20260509062051 17 250 16.1 29.0 0.00 0.00 0.00 39 1010.0
20260509061613 17 287 14.5 25.7 0.00 0.00 0.00 39 1010.0